[[{"header":{"parameterUnit":"m.s-1","parameterCategory":1,"la1":30.2991,"la2":30.254,"lo1":-89.0895,"lo2":-89.0444,"dy":0.0017,"dx":0.0017,"nx":28,"ny":28,"refTime":"2024-07-25T03:00:00:Z","depth":0,"parameterNumber":2,"parameterNumberName":"U-component_of_WINDS"},"data":[0,0,0,0,0,0,0,0,0,0,0,0,0,0,0,0,0,0,0,0,0,0,0,0,0,0,0,0,0,0,0,0,0,0,0,0,0,0,0,0,0,0,0,0,0,0,0,0,0,0,0,0,0,0,0,0,0,0,-2.7721,-2.772,0,-2.7647,-2.7646,-2.7645,-2.7568,-2.7567,-2.7566,-2.7565,-2.7488,-2.7487,-2.7486,0,0,0,0,0,0,0,0,0,0,0,0,0,-2.7795,-2.7794,-2.7721,-2.772,-2.7719,-2.7647,-2.7646,-2.7645,-2.7568,-2.7567,-2.7566,-2.7565,-2.7489,-2.7487,-2.7486,0,0,0,0,0,0,0,0,0,0,0,0,0,-2.7746,-2.7794,-2.7721,-2.7672,-2.7667,-2.7647,-2.7646,-2.7645,-2.7569,-2.7567,-2.7566,-2.7564,-2.7489,-2.7488,-2.7486,-2.7508,0,0,-2.7481,-2.7481,0,0,0,0,0,0,0,0,-2.7749,-2.7744,-2.768,-2.7676,-2.767,-2.7615,-2.7644,-2.7599,-2.7569,-2.7606,-2.7565,-2.7563,-2.7532,-2.7527,-2.7516,-2.7504,-2.7501,-2.7481,-2.748,-2.7479,-2.7479,0,0,0,0,0,0,0,-2.7753,-2.7747,-2.7692,-2.768,-2.7673,-2.7654,-2.7645,-2.7635,-2.7579,-2.7603,-2.7597,-2.7589,-2.7529,-2.7518,-2.7514,-2.75,-2.7481,-2.748,-2.7479,-2.7478,-2.7503,-2.7504,0,0,0,0,0,0,-2.7764,-2.775,-2.7694,-2.7689,-2.7707,-2.7654,-2.7644,-2.7634,-2.7579,-2.7569,-2.7591,-2.7586,-2.7521,-2.7516,-2.7511,-2.7532,-2.7479,-2.7478,-2.7477,-2.7501,-2.7503,-2.7505,0,0,0,0,0,0,-2.7766,-2.7759,-2.7697,-2.7718,-2.7709,-2.7654,-2.7644,-2.7634,-2.7623,-2.757,-2.7559,-2.759,-2.752,-2.7513,-2.7509,-2.7529,-2.7477,-2.7476,-2.7499,-2.7502,-2.7504,-2.7577,0,0,0,0,0,0,-2.7768,-2.7761,-2.7768,-2.7719,-2.7708,-2.7697,-2.7645,-2.7633,-2.762,-2.7614,-2.7566,-2.7557,-2.7518,-2.7512,-2.7508,-2.7526,-2.7475,-2.7497,-2.75,-2.7503,-2.7572,-2.7581,-2.7589,0,0,0,0,0,-2.7771,-2.7792,-2.7769,-2.7763,-2.7717,-2.7698,-2.7692,-2.7647,-2.7622,-2.763,-2.7596,-2.7558,-2.7528,-2.7512,-2.7507,-2.7525,-2.7496,-2.7499,-2.7503,-2.7568,-2.7579,-2.7589,0,0,0,0,0,0,-2.7844,-2.7784,-2.7759,-2.7764,-2.7737,-2.7685,-2.7693,-2.766,-2.7639,-2.7634,-2.7579,-2.7569,-2.7572,-2.7548,-2.7532,-2.7543,-2.7506,-2.7509,-2.7558,-2.7568,-2.7576,-2.7582,-2.7473,0,0,0,0,0,-2.7861,-2.7852,-2.78,-2.7809,-2.7797,-2.7748,-2.7738,-2.7706,-2.7676,-2.7664,-2.7629,-2.7601,-2.7585,-2.7575,-2.7558,-2.7569,-2.7557,-2.7578,-2.7587,-2.7594,-2.7597,-2.76,-2.7609,-2.7516,-2.7516,-2.7516,0,0,-2.7896,-2.7862,-2.7859,-2.7823,-2.7799,-2.779,-2.7739,-2.7731,-2.7724,-2.7663,-2.7657,-2.7631,-2.7596,-2.76,-2.76,-2.758,-2.762,-2.7598,-2.7605,-2.7603,-2.7605,-2.7614,-2.7622,-2.7519,-2.7518,-2.7518,0,0,-2.7954,-2.7928,-2.7933,-2.791,-2.7873,-2.784,-2.7842,-2.7795,-2.7776,-2.7769,-2.7723,-2.7714,-2.7687,-2.7664,-2.7649,-2.77,-2.7665,-2.7696,-2.7739,-2.7743,-2.7751,-2.7757,-2.7774,-2.7782,-2.7699,-2.7699,-2.7699,0,-2.8002,-2.7987,-2.794,-2.7935,-2.7921,-2.7866,-2.787,-2.785,-2.7809,-2.78,-2.7779,-2.7745,-2.7717,-2.7715,-2.7728,-2.7717,-2.7717,-2.77,-2.7754,-2.7759,-2.7764,-2.778,-2.7787,-2.7703,-2.7702,-2.7702,-2.7701,0,-2.8047,-2.8037,-2.8046,-2.8008,-2.7995,-2.7995,-2.7948,-2.794,-2.791,-2.788,-2.7874,-2.7839,-2.7813,-2.7811,-2.7781,-2.7804,-2.7793,-2.7764,-2.7726,-2.7778,-2.7792,-2.7798,-2.7708,-2.7707,-2.7706,-2.7705,0,0,-2.8148,-2.8085,-2.8089,-2.8072,-2.8028,-2.8019,-2.8018,-2.7993,-2.7987,-2.7961,-2.7958,-2.7937,-2.791,-2.7893,-2.786,-2.7864,-2.7906,-2.7834,-2.7832,-2.7848,-2.793,-2.7952,-2.796,-2.7883,-2.7884,-2.7885,-2.7932,0,-2.8198,-2.8191,-2.8149,-2.8154,-2.8144,-2.8093,-2.8091,-2.8064,-2.8036,-2.8023,-2.7992,-2.7978,-2.7943,-2.7932,-2.7934,-2.7901,-2.7922,-2.7897,-2.7879,-2.7879,-2.7889,-2.7967,-2.799,-2.8036,-2.7938,-2.7939,-2.7939,0,-2.8255,-2.8233,-2.8238,-2.8194,-2.8189,-2.8188,-2.8162,-2.8151,-2.812,-2.8099,-2.8081,-2.8044,-2.8039,-2.8004,-2.7996,-2.798,-2.797,-2.7953,-2.7954,-2.7949,-2.7912,-2.7964,-2.805,-2.8056,-2.7948,-2.7947,-2.7947,0,-2.8327,-2.8299,-2.8298,-2.8285,-2.8235,-2.8235,-2.8214,-2.8181,-2.8169,-2.8147,-2.8138,-2.8116,-2.8103,-2.8087,-2.8045,-2.8024,-2.8042,-2.8003,-2.8024,-2.8025,-2.8028,-2.8029,-2.8113,-2.8025,-2.8024,-2.8024,-2.8024,0,-2.8387,-2.8391,-2.833,-2.833,-2.8333,-2.8286,-2.829,-2.8264,-2.8236,-2.8229,-2.8183,-2.8177,-2.8123,-2.8111,-2.8079,-2.8077,-2.8072,-2.8055,-2.8046,-2.8058,-2.806,-2.805,-2.8045,-2.8026,-2.8026,-2.8025,-2.8025,0,-2.8468,-2.8427,-2.8422,-2.8376,-2.8364,-2.8369,-2.8328,-2.8326,-2.8295,-2.8287,-2.8283,-2.8235,-2.8219,-2.8176,-2.8149,-2.8127,-2.8134,-2.8118,-2.8145,-2.8139,-2.8161,-2.8159,-2.8241,-2.8249,-2.8157,-2.8158,-2.8159,0,-2.8508,-2.851,-2.8464,-2.8456,-2.8437,-2.8426,-2.8413,-2.8367,-2.8356,-2.8321,-2.8322,-2.8303,-2.8285,-2.8262,-2.8224,-2.8203,-2.8186,-2.8216,-2.8182,-2.8195,-2.8185,-2.8185,-2.8185,-2.8223,-2.8224,-2.8225,-2.8226,0,-2.8583,-2.8563,-2.8547,-2.8525,-2.8512,-2.8492,-2.8469,-2.8466,-2.8413,-2.8404,-2.8387,-2.8373,-2.8346,-2.8327,-2.83,-2.8278,-2.8244,-2.8238,-2.8241,-2.8253,-2.8268,-2.8259,-2.8164,-2.8235,-2.8234,-2.8234,-2.8233,-2.8233,-2.8644,-2.8644,-2.8611,-2.8595,-2.8574,-2.8554,-2.8549,-2.8519,-2.8504,-2.8478,-2.8452,-2.8438,-2.8407,-2.8368,-2.8349,-2.8337,-2.8319,-2.8324,-2.8325,-2.8327,-2.8332,-2.8271,-2.8332,-2.8332,-2.8331,-2.8331,-2.8331,0,-2.8716,-2.8693,-2.8679,-2.8649,-2.8637,-2.8606,-2.858,-2.8571,-2.856,-2.8534,-2.8518,-2.8499,-2.848,-2.8442,-2.8421,-2.8419,-2.8402,-2.8414,-2.8413,-2.8409,-2.835,-2.8349,-2.8428,-2.8428,-2.8428,-2.8428,-2.8428,-2.8428,-2.8752,-2.875,-2.8726,-2.8713,-2.869,-2.8676,-2.8664,-2.8645,-2.8624,-2.8605,-2.859,-2.8566,-2.8535,-2.8511,-2.8493,-2.8482,-2.8475,-2.8493,-2.8477,-2.8422,-2.8413,-2.8404,-2.8403,-2.8492,-2.8492,-2.8536,-2.8537,-2.8537]},{"header":{"parameterUnit":"m.s-1","parameterCategory":1,"la1":30.2991,"la2":30.254,"lo1":-89.0895,"lo2":-89.0444,"dy":0.0017,"dx":0.0017,"nx":28,"ny":28,"refTime":"2024-07-25T03:00:00:Z","depth":0,"parameterNumber":3,"parameterNumberName":"V-component_of_WINDS"},"data":[0,0,0,0,0,0,0,0,0,0,0,0,0,0,0,0,0,0,0,0,0,0,0,0,0,0,0,0,0,0,0,0,0,0,0,0,0,0,0,0,0,0,0,0,0,0,0,0,0,0,0,0,0,0,0,0,0,0,0.0277,0.0276,0,0.0211,0.021,0.0209,0.0165,0.0164,0.0164,0.0164,0.0097,0.0096,0.0095,0,0,0,0,0,0,0,0,0,0,0,0,0,0.0367,0.0365,0.0277,0.0276,0.0275,0.0211,0.021,0.0209,0.0165,0.0164,0.0164,0.0164,0.0098,0.0096,0.0094,0,0,0,0,0,0,0,0,0,0,0,0,0,0.0317,0.0365,0.0277,0.0245,0.0242,0.0211,0.021,0.0209,0.0165,0.0164,0.0164,0.0164,0.0098,0.0096,0.0094,0.009,0,0,0.0087,0.0086,0,0,0,0,0,0,0,0,0.032,0.0314,0.0251,0.0248,0.0244,0.0196,0.0217,0.0169,0.0165,0.0194,0.0164,0.0163,0.0131,0.0126,0.0114,0.0087,0.0084,0.0087,0.0086,0.0085,0.0084,0,0,0,0,0,0,0,0.0323,0.0316,0.0251,0.025,0.0246,0.0235,0.0228,0.0208,0.0166,0.0192,0.0188,0.0181,0.0128,0.0117,0.0112,0.0083,0.0087,0.0085,0.0084,0.0083,0.005,0.005,0,0,0,0,0,0,0.0332,0.032,0.0253,0.0249,0.0281,0.0234,0.0225,0.0211,0.0166,0.0159,0.0181,0.0179,0.0121,0.0115,0.011,0.0102,0.0085,0.0083,0.0082,0.0049,0.005,0.005,0,0,0,0,0,0,0.0334,0.0326,0.0256,0.0283,0.0273,0.0233,0.0218,0.021,0.0198,0.0158,0.0151,0.0177,0.012,0.0113,0.0095,0.0099,0.0082,0.008,0.0049,0.0049,0.005,0.0087,0,0,0,0,0,0,0.0336,0.0327,0.0325,0.0283,0.0272,0.0242,0.0218,0.0209,0.0195,0.0191,0.0152,0.0145,0.0119,0.0099,0.0093,0.0096,0.0078,0.0048,0.0049,0.005,0.0085,0.0089,0.0092,0,0,0,0,0,0.034,0.0338,0.0325,0.0317,0.0268,0.0242,0.0236,0.0205,0.0195,0.0193,0.0167,0.0146,0.01,0.0097,0.0091,0.0093,0.0048,0.0049,0.005,0.0084,0.0088,0.0092,0,0,0,0,0,0,0.0381,0.0332,0.0317,0.0301,0.0276,0.0235,0.023,0.0211,0.0188,0.0186,0.015,0.0141,0.0128,0.0108,0.0106,0.0087,0.0071,0.0071,0.01,0.0104,0.0107,0.0112,0.0076,0,0,0,0,0,0.0388,0.037,0.0329,0.0319,0.0307,0.0271,0.0259,0.0238,0.021,0.0199,0.0172,0.0147,0.0127,0.0114,0.0093,0.0082,0.0074,0.0081,0.0084,0.0087,0.0087,0.0081,0.0084,0.0053,0.0053,0.0053,0,0,0.0403,0.0374,0.0365,0.0327,0.0305,0.0288,0.0263,0.0246,0.0233,0.0197,0.0178,0.0158,0.0127,0.0113,0.0106,0.0097,0.0094,0.0088,0.0091,0.0089,0.0082,0.0085,0.0088,0.0054,0.0054,0.0054,0,0,0.0421,0.0397,0.0387,0.0366,0.0332,0.0308,0.0306,0.0267,0.0252,0.0233,0.0206,0.0191,0.0156,0.0136,0.0121,0.0132,0.0113,0.0127,0.0144,0.0138,0.0141,0.0143,0.0147,0.0149,0.0127,0.0127,0.0127,0,0.0444,0.0417,0.0384,0.0369,0.0353,0.032,0.0309,0.029,0.0252,0.0243,0.0233,0.019,0.0167,0.0148,0.0151,0.014,0.0136,0.0131,0.0143,0.0145,0.0146,0.015,0.0152,0.0129,0.0129,0.0129,0.0128,0,0.0446,0.0428,0.0424,0.0388,0.0372,0.0359,0.0325,0.0313,0.0294,0.0271,0.0252,0.0224,0.0197,0.019,0.0171,0.0169,0.0165,0.015,0.0133,0.0151,0.0154,0.0155,0.0132,0.0131,0.013,0.013,0,0,0.0488,0.0435,0.0434,0.0417,0.0379,0.0364,0.035,0.0324,0.0314,0.0289,0.0277,0.0249,0.0235,0.0218,0.0197,0.0192,0.0203,0.0177,0.0176,0.0183,0.0199,0.0211,0.0213,0.019,0.019,0.019,0.0202,0,0.0501,0.0474,0.0444,0.0428,0.0411,0.0379,0.0367,0.0343,0.0322,0.0305,0.0281,0.0262,0.0245,0.0235,0.0228,0.0203,0.0206,0.0202,0.0179,0.0179,0.0188,0.0215,0.0227,0.0239,0.0203,0.0203,0.0203,0,0.0512,0.0488,0.047,0.0433,0.0425,0.0415,0.0388,0.0372,0.0344,0.0329,0.0311,0.0288,0.0273,0.0258,0.0237,0.0235,0.0224,0.0211,0.021,0.0207,0.0192,0.0213,0.0242,0.0245,0.0205,0.0205,0.0205,0,0.0545,0.0509,0.0493,0.048,0.0437,0.043,0.0412,0.0383,0.037,0.0347,0.0337,0.0313,0.03,0.0282,0.0253,0.0246,0.0236,0.0219,0.0223,0.0224,0.0222,0.0223,0.0251,0.0215,0.0215,0.0215,0.0215,0,0.0562,0.0552,0.0507,0.0498,0.0486,0.0453,0.0442,0.0421,0.0396,0.0383,0.0354,0.0342,0.0305,0.0289,0.0266,0.0253,0.0247,0.0235,0.0229,0.0237,0.0239,0.023,0.0228,0.0215,0.0215,0.0215,0.0215,0,0.0597,0.0566,0.0547,0.0508,0.0498,0.0491,0.0458,0.0448,0.0425,0.0408,0.0402,0.0367,0.0346,0.0316,0.0287,0.0272,0.0262,0.0252,0.0271,0.0268,0.0274,0.0274,0.0297,0.0299,0.0262,0.0262,0.0262,0,0.061,0.0602,0.0562,0.055,0.0533,0.0515,0.05,0.0468,0.0454,0.0422,0.0416,0.0393,0.0373,0.0342,0.0314,0.0291,0.0281,0.0291,0.0278,0.0287,0.0282,0.0283,0.0283,0.0295,0.0295,0.0296,0.0296,0,0.0637,0.0622,0.0602,0.0577,0.0561,0.0539,0.0517,0.051,0.0472,0.0458,0.0437,0.0421,0.0391,0.0369,0.0343,0.0325,0.0305,0.03,0.03,0.0309,0.0321,0.0315,0.028,0.03,0.03,0.0299,0.0299,0.0299,0.0661,0.0653,0.0623,0.0602,0.0582,0.0562,0.055,0.0526,0.0508,0.048,0.0462,0.0442,0.0415,0.0377,0.036,0.0344,0.0336,0.0336,0.0336,0.0336,0.0339,0.0323,0.034,0.0339,0.0339,0.0339,0.0339,0,0.0687,0.0667,0.0648,0.0617,0.0601,0.0582,0.0557,0.0544,0.0527,0.0503,0.0484,0.046,0.0438,0.0409,0.0386,0.0379,0.0369,0.0374,0.0374,0.0371,0.0348,0.0351,0.0382,0.0382,0.0382,0.0382,0.0382,0.0382,0.0699,0.0683,0.0665,0.064,0.0619,0.0599,0.0586,0.0568,0.0548,0.0523,0.0505,0.0485,0.0459,0.0434,0.0414,0.0406,0.0399,0.0407,0.0396,0.0376,0.0372,0.0368,0.0371,0.0406,0.0406,0.042,0.042,0.042]}]]